AirNav  
 
 1028 users online  

ID74 Sulphur Creek Ranch Airport
Cascade, Idaho, USA

GOING TO CASCADE?


FAA INFORMATION EFFECTIVE 25 MARCH 2021

Location

FAA Identifier: ID74
Lat/Long: 44-32-11.6510N 115-21-03.3870W
44-32.194183N 115-21.056450W
44.5365697,-115.3509408
(estimated)
Elevation: 5835 ft. / 1779 m (estimated)
Variation: 16E (1995)
From city: 50 miles E of CASCADE, ID
Time zone: UTC -6 (UTC -7 during Standard Time)
Zip code: 83611

Airport Operations

Airport use: Private use. Permission required prior to landing
Activation date: 05/1996
Control tower: no
ARTCC: SALT LAKE CITY CENTER
FSS: BOISE FLIGHT SERVICE STATION
Attendance: JUN-NOV 24 HOURS/DAY
Wind indicator: lighted
Segmented circle: no

Nearby radio navigation aids

VOR radial/distance  VOR name  Freq  Var
DNJr092/39.0DONNELLY VOR/DME116.2019E

Airport Services

Runway Information

Runway 10/28

Dimensions: 3300 x 40 ft. / 1006 x 12 m
Surface: gravel/turf, in good condition
Operational restrictions: LAND TO THE WEST; TAKEOFF TO THE EAST.
RUNWAY 10  RUNWAY 28
Traffic pattern: leftleft
Obstructions: treestrees

Airport Ownership and Management from official FAA records

Ownership: Privately-owned
Owner: SULPHUR CREEK LLC
PO BOX 1607
BELLEVUE, WA 98009
Phone 4254602500
Manager: NATHAN RIMMER
PO BOX 1607
BELLEVUE, WA 98009
Phone 4254602500

Additional Remarks

FOR CD CTC SALT LAKE ARTCC AT 801-320-2568.

Instrument Procedures

There are no published instrument procedures at ID74.

Some nearby airports with instrument procedures:

KMYL - Mc Call Municipal Airport (38 nm NW)
KBOI - Boise Air Terminal/Gowen Field (69 nm SW)
KSMN - Lemhi County Airport (72 nm NE)
S87 - Weiser Municipal Airport (72 nm W)
KMAN - Nampa Municipal Airport (76 nm SW)
 
Loc | Ops | Rwys | IFR | FBO | Links
Com | Nav | Svcs | Stats | Notes
Area around ID74 (Sulphur Creek Ranch Airport)
 
Road maps at: MapQuest Bing Google
 
Aerial photo
WARNING: Photo may not be current or correct
Aerial photo of ID74 (Sulphur Creek Ranch Airport)
Photo taken 05-Jul-2008

Do you have a better or more recent aerial photo of Sulphur Creek Ranch Airport that you would like to share? If so, please send us your photo.

 
Sectional chart

 
Airport distance calculator
Flying to Sulphur Creek Ranch Airport? Find the distance to fly.

From to ID74

Sunrise and sunset
Times for 11-Apr-2021
 Local
(UTC-6)
 Zulu
(UTC)
Morning civil twilight06:3512:35
Sunrise07:0513:05
Sunset20:2002:20
Evening civil twilight20:5002:50

Current date and time
Zulu (UTC)  12-Apr-2021 00:03:22
Local (UTC-6)  11-Apr-2021 18:03:22
 
METAR
KSNT 
29nm SE 
112351Z AUTO 35007KT 03/M12 A2998 RMK AO1 SLP147 T00331117 10039 21017 55004
KMYL 
38nm NW 
112351Z AUTO 28011G19KT 10SM CLR 03/M11 A3003 RMK AO2 SLP197 T00331111 10033 21006 55003
KLLJ 
49nm E 
112355Z AUTO 03012G18KT 10SM CLR 07/M16 A2996 RMK AO2 SLP156 T00721161 10083 20011 56013
TAF
KMYL 
38nm NW 
111720Z 1118/1218 36007KT P6SM SKC FM121200 VRB03KT P6SM SKC
NOTAMs
Click for the latest NOTAMs
NOTAMs are issued by the DoD/FAA and will open in a separate window not controlled by AirNav.

 

 
 

Would you like to see your business listed on this page?

 If your business provides an interesting product or service to pilots, flight crews, aircraft, or users of the Sulphur Creek Ranch Airport, you should consider listing it here.  To start the listing process, click on the button below
 
Add a business
 

Other Pages about Sulphur Creek Ranch Airport

www.skypark.org/More_Strips.htm
 
Update a link
 
Copyright © AirNav, LLC. All rights reserved. Privacy Policy  Contact